F4IED-13 Weather Reports


time (UTC)temp
C
wind
direction
speed
KPH
gust
KPH
rain 1hr
cm
rain 24hr
cm
rain mn
cm
humidity
%
barometer
mb
20260510015418 15 18 6.4 11.3 0.00 0.00 0.00 65 1009.8
20260510014416 15 27 6.4 16.1 0.00 0.00 0.00 65 1009.9
20260510013415 15 19 9.7 16.1 0.00 0.00 0.00 65 1009.9
20260510012412 15 16 9.7 20.9 0.00 0.00 0.00 65 1009.9
20260510011410 15 18 9.7 17.7 0.00 0.00 0.00 65 1010.0
20260510010408 15 23 8.0 14.5 0.00 0.00 0.00 64 1010.2
20260510005406 16 18 8.0 14.5 0.00 0.00 0.00 64 1010.4
20260510004405 16 13 8.0 14.5 0.00 0.00 0.00 64 1010.6
20260510003402 16 16 9.7 16.1 0.00 0.00 0.00 63 1010.6
20260510002359 16 21 9.7 14.5 0.00 0.00 0.00 63 1010.7
20260510001358 16 15 8.0 12.9 0.00 0.00 0.00 63 1010.9
20260510000356 16 11 9.7 16.1 0.00 0.00 0.00 63 1010.9
20260509235352 16 16 9.7 17.7 0.00 0.00 0.00 63 1011.0
20260509234350 17 15 11.3 20.9 0.00 0.00 0.00 62 1011.0
20260509233347 17 15 9.7 17.7 0.00 0.00 0.00 62 1011.1
20260509232345 17 10 9.7 14.5 0.00 0.00 0.00 62 1011.1
20260509231343 17 15 9.7 19.3 0.00 0.00 0.00 62 1011.2
20260509230401 17 20 8.0 11.3 0.00 0.00 0.00 62 1011.3
20260509225339 17 17 6.4 12.9 0.00 0.00 0.00 62 1011.3
20260509224357 17 16 6.4 9.7 0.00 0.00 0.00 62 1011.4
20260509223356 17 15 8.0 12.9 0.00 0.00 0.00 62 1011.4
20260509222333 17 17 6.4 11.3 0.00 0.00 0.00 63 1011.4
20260509221331 17 12 8.0 14.5 0.00 0.00 0.00 63 1011.3
20260509220329 17 17 6.4 12.9 0.00 0.00 0.00 63 1011.3
20260509215327 17 21 8.0 14.5 0.00 0.00 0.00 63 1011.4
20260509214325 17 24 6.4 11.3 0.00 0.00 0.00 64 1011.4
20260509213322 17 20 6.4 11.3 0.00 0.00 0.00 64 1011.5
20260509212320 17 24 6.4 12.9 0.00 0.00 0.00 64 1011.5
20260509211318 17 11 4.8 11.3 0.00 0.00 0.00 64 1011.5
20260509210316 17 25 6.4 9.7 0.00 0.00 0.00 65 1011.4
20260509205313 17 17 1.6 6.4 0.00 0.00 0.00 64 1011.4
20260509204313 17 15 1.6 4.8 0.00 0.00 0.00 64 1011.3
20260509203330 18 20 1.6 4.8 0.00 0.00 0.00 63 1011.3
20260509202308 18 29 1.6 3.2 0.00 0.00 0.00 63 1011.4
20260509201306 18 22 3.2 4.8 0.00 0.00 0.00 62 1011.3
20260509200304 18 25 3.2 6.4 0.00 0.00 0.00 62 1011.3
20260509195306 18 22 1.6 4.8 0.00 0.00 0.00 61 1011.2
20260509194259 19 29 1.6 6.4 0.00 0.00 0.00 60 1011.1
20260509193317 19 21 1.6 4.8 0.00 0.00 0.00 59 1011.0
20260509192315 20 22 1.6 4.8 0.00 0.00 0.00 59 1010.9
20260509191252 20 18 1.6 4.8 0.00 0.00 0.00 58 1010.9
20260509190310 20 25 1.6 6.4 0.00 0.00 0.00 57 1011.0
20260509185248 20 23 3.2 6.4 0.00 0.00 0.00 56 1010.9
20260509184247 21 17 3.2 8.0 0.00 0.00 0.00 55 1010.8
20260509183304 21 7 3.2 11.3 0.00 0.00 0.00 54 1010.8
20260509182242 21 14 4.8 9.7 0.00 0.00 0.00 54 1010.7
20260509181240 22 14 3.2 9.7 0.00 0.00 0.00 53 1010.6
20260509180238 22 24 3.2 6.4 0.00 0.00 0.00 53 1010.7
20260509175236 22 31 3.2 9.7 0.00 0.00 0.00 52 1010.7
20260509174254 22 17 4.8 9.7 0.00 0.00 0.00 51 1010.6
20260509173231 23 25 3.2 8.0 0.00 0.00 0.00 51 1010.9
20260509172250 23 11 4.8 14.5 0.00 0.00 0.00 50 1010.9
20260509171249 23 15 4.8 14.5 0.00 0.00 0.00 51 1010.9
20260509170226 23 105 3.2 9.7 0.00 0.00 0.00 51 1011.0
20260509165224 23 146 3.2 6.4 0.00 0.00 0.00 51 1011.0
20260509164222 23 71 3.2 6.4 0.00 0.00 0.00 51 1011.0
20260509163220 23 90 3.2 6.4 0.00 0.00 0.00 51 1011.0
20260509162218 23 31 3.2 9.7 0.00 0.00 0.00 51 1011.1
20260509161216 23 90 3.2 9.7 0.00 0.00 0.00 52 1011.1
20260509160234 23 45 3.2 9.7 0.00 0.00 0.00 52 1011.2
20260509155232 23 41 3.2 9.7 0.00 0.00 0.00 52 1011.3
20260509154209 23 6 6.4 16.1 0.00 0.00 0.00 52 1011.4
20260509153208 23 28 3.2 9.7 0.00 0.00 0.00 52 1011.5
20260509152206 23 21 3.2 9.7 0.00 0.00 0.00 52 1011.7
20260509151204 23 1 3.2 11.3 0.00 0.00 0.00 51 1011.8
20260509150201 24 42 3.2 11.3 0.00 0.00 0.00 53 1011.8
20260509145200 23 34 1.6 6.4 0.00 0.00 0.00 53 1011.9
20260509144158 24 19 3.2 9.7 0.00 0.00 0.00 51 1011.8
20260509143156 25 7 4.8 11.3 0.00 0.00 0.00 51 1011.9
20260509142154 25 145 3.2 8.0 0.00 0.00 0.00 50 1011.7
20260509141152 25 170 4.8 14.5 0.00 0.00 0.00 50 1011.7
20260509140149 25 204 3.2 11.3 0.00 0.00 0.00 52 1011.6
20260509135208 25 198 3.2 9.7 0.00 0.00 0.00 53 1011.7
20260509134146 24 45 3.2 9.7 0.00 0.00 0.00 54 1011.7
20260509133145 23 196 3.2 14.5 0.00 0.00 0.00 55 1011.9
20260509132142 23 66 3.2 11.3 0.00 0.00 0.00 54 1011.9
20260509131240 23 288 3.2 11.3 0.00 0.00 0.00 56 1011.9
20260509130139 23 18 3.2 9.7 0.00 0.00 0.00 54 1012.0
20260509125136 23 27 4.8 17.7 0.00 0.00 0.00 57 1012.1
20260509124139 23 17 3.2 14.5 0.00 0.00 0.00 56 1012.2
20260509123152 23 15 4.8 17.7 0.00 0.00 0.00 56 1012.3
20260509122130 23 16 4.8 11.3 0.00 0.00 0.00 57 1012.5
20260509121128 23 168 1.6 3.2 0.00 0.00 0.00 58 1012.5
20260509120125 22 30 3.2 11.3 0.00 0.00 0.00 60 1012.6
20260509115123 22 35 3.2 9.7 0.00 0.00 0.00 61 1012.7
20260509114141 21 26 6.4 14.5 0.00 0.00 0.00 59 1012.8
20260509113117 22 35 3.2 9.7 0.00 0.00 0.00 61 1012.9
20260509112115 21 13 6.4 16.1 0.00 0.00 0.00 61 1013.1
20260509111114 21 39 3.2 6.4 0.00 0.00 0.00 64 1013.2
20260509110211 21 32 3.2 9.7 0.00 0.00 0.00 65 1013.2
20260509105129 20 90 3.2 12.9 0.00 0.00 0.00 66 1013.3
20260509104108 20 51 1.6 6.4 0.00 0.00 0.00 68 1013.4
20260509103105 19 27 3.2 12.9 0.00 0.00 0.00 69 1013.4
20260509102103 18 29 3.2 11.3 0.00 0.00 0.00 70 1013.6
20260509101121 18 34 3.2 6.4 0.00 0.00 0.00 72 1013.6
20260509100119 18 45 3.2 8.0 0.00 0.00 0.00 72 1013.5
20260509095058 17 34 3.2 9.7 0.00 0.00 0.00 71 1013.6
20260509094055 17 31 3.2 11.3 0.00 0.00 0.00 72 1013.6
20260509093053 17 27 3.2 9.7 0.00 0.00 0.00 71 1013.6
20260509092051 17 28 3.2 9.7 0.00 0.00 0.00 73 1013.6
20260509091049 16 47 3.2 9.7 0.00 0.00 0.00 74 1013.6
20260509090048 16 45 3.2 6.4 0.00 0.00 0.00 74 1013.5
20260509085045 16 28 3.2 8.0 0.00 0.00 0.00 75 1013.4
20260509084043 15 29 3.2 6.4 0.00 0.00 0.00 76 1013.5
20260509083040 15 29 3.2 9.7 0.00 0.00 0.00 76 1013.6
20260509082039 15 33 3.2 6.4 0.00 0.00 0.00 76 1013.8
20260509081036 15 23 3.2 9.7 0.00 0.00 0.00 77 1013.9
20260509080034 14 23 3.2 9.7 0.00 0.00 0.00 77 1013.9
20260509075033 13 18 3.2 9.7 0.00 0.00 0.00 78 1013.9
20260509074030 13 26 3.2 9.7 0.00 0.00 0.00 78 1014.1
20260509073027 13 25 3.2 9.7 0.00 0.00 0.00 79 1014.1
20260509072045 13 33 3.2 9.7 0.00 0.00 0.00 79 1014.1
20260509071043 13 42 4.8 11.3 0.00 0.00 0.00 80 1014.1
20260509070020 12 24 4.8 9.7 0.00 0.00 0.00 80 1014.1
20260509065039 12 23 3.2 9.7 0.00 0.00 0.00 81 1014.1
20260509064057 12 18 4.8 9.7 0.00 0.00 0.00 81 1014.1
20260509063015 11 24 6.4 12.9 0.00 0.00 0.00 82 1014.1
20260509062035 11 23 6.4 9.7 0.00 0.00 0.00 82 1014.0
20260509061011 11 24 4.8 9.7 0.00 0.00 0.00 82 1013.9
20260509060009 10 16 6.4 9.7 0.00 0.00 0.00 82 1014.0
20260509055007 10 8 3.2 6.4 0.00 0.00 0.00 82 1013.8
20260509054026 10 22 6.4 9.7 0.00 0.00 0.00 82 1013.8
20260509053003 10 22 6.4 11.3 0.00 0.00 0.00 81 1013.7
20260509051500 10 16 6.4 9.7 0.00 0.00 0.00 81 1013.7
20260509050458 10 17 6.4 11.3 0.00 0.00 0.00 81 1013.6
20260509045456 10 20 6.4 12.9 0.00 0.00 0.00 81 1013.5
20260509044454 10 1 6.4 9.7 0.00 0.00 0.00 80 1013.5
20260509043453 10 1 6.4 9.7 0.00 0.00 0.00 80 1013.5
20260509042451 10 8 6.4 14.5 0.00 0.00 0.00 80 1013.6
20260509041508 10 12 6.4 9.7 0.00 0.00 0.00 80 1013.7
20260509040446 11 13 8.0 14.5 0.00 0.00 0.00 80 1013.6
20260509035504 11 16 6.4 17.7 0.00 0.00 0.00 80 1013.7
20260509034441 11 17 6.4 12.9 0.00 0.00 0.00 79 1013.7
20260509033438 11 12 6.4 11.3 0.00 0.00 0.00 79 1013.7
20260509032436 11 14 6.4 11.3 0.00 0.00 0.00 79 1013.8
20260509031434 11 9 6.4 11.3 0.00 0.00 0.00 79 1013.9
20260509030432 11 19 6.4 11.3 0.00 0.00 0.00 79 1013.9
20260509025430 11 358 6.4 11.3 0.00 0.00 0.00 78 1013.9
20260509024428 11 7 6.4 11.3 0.00 0.00 0.00 79 1014.0
20260509023426 11 13 4.8 11.3 0.00 0.00 0.00 78 1014.0
20260509022424 11 18 3.2 6.4 0.00 0.00 0.00 78 1014.0
20260509021422 11 16 4.8 8.0 0.00 0.00 0.00 78 1014.1
20260509020420 11 21 4.8 9.7 0.00 0.00 0.00 78 1014.1